User: anonymous   Login
Location: Clatteringshaws Loch
(55.0508°N, 4.2860°W)
Time: 04:27:40
(UTC+01:00)
Language:

Cosmos 2221 Rocket - Orbit

View from above orbital plane
View from above orbital plane
View from above satellite
View from above satellite

Ground track
Ground track

The orbit data is extracted from the following two-line orbital elements,

1 22237U 92080B   14297.10555630  .00000651  00000-0  86976-4 0  4765
2 22237 082.5101 297.1597 0021436 125.7693 298.8893 14.77929864180579
Epoch (UTC): 24 October 2014 02:32:00
Eccentricity: 0.0021436
inclination: 82.5101°
perigee height: 621 km
apogee height: 651 km
right ascension of ascending node: 297.1597°
argument of perigee: 125.7693°
revolutions per day: 14.77929864
mean anomaly at epoch: 298.8893°
orbit number at epoch: 18057

The dashed part of the orbit path shows where the satellite is in the earth's shadow,  

DLR